Location: Hazelwood
(35.4687°N, 83.0040°W)
Time: 19:10:31
(UTC+00:00)

X-37B - Visible Passes

Search period start: 08 December 2022 00:00
Search period end: 18 December 2022 00:00
Orbit: 277 x 277 km, 45.0° (Epoch: 01 November)

Date Brightness Start Highest point End Pass type
(mag) Time Alt. Az. Time Alt. Az. Time Alt. Az.
08 Dec 1.7 23:30:56 10° WNW 23:32:59 22° NNW 23:33:32 21° N visible
09 Dec 2.2 23:32:12 10° WNW 23:33:49 16° NNW 23:34:13 15° N visible
10 Dec 2.6 23:33:38 10° NW 23:34:41 12° NNW 23:34:52 12° N visible
11 Dec 2.8 23:35:24 10° N 23:35:30 10° N 23:35:30 10° N visible
14 Dec 2.8 23:37:28 10° NNW 23:37:33 10° N 23:37:33 10° N visible
15 Dec 2.5 23:37:45 10° NNW 23:38:21 13° N 23:38:21 13° N visible
16 Dec 2.0 23:38:08 10° NNW 23:39:16 17° N 23:39:16 17° N visible
17 Dec 1.2 23:38:35 10° NW 23:40:21 29° N 23:40:21 29° N visible
